Flag for Canada Weather past 2 weeks in Inuvik, Northwest Territories, Canada

Now
43 °F

Partly sunny.


Feels Like: 40 °F
Forecast: 37 / 42 °F
Wind: 5 mph from North

Location: Inuvik

Current Time: Aug 28, 2015 at 9:32:55 PM

Latest Report: Aug 28, 2015 at 9:00 PM


Visibility: 15 mi

Pressure: 29.80 "Hg

Humidity: 61%

Dew point: 30 °F

Location of InuvikLocation

Historic Weather in Inuvik — Graph

°F

Inuvik temperature yesterday

Maximum temperature yesterday: 55 °F (at 12:00 AM)
Minimum temperature yesterday: 39 °F (at 9:00 PM)
Average temperature yesterday: 46 °F

Past Weeks' High & Low Weather Summary

 TemperatureHumidityPressure
High66 °F (Aug 26, 4:00 PM)100% (Aug 16, 7:00 AM)30.13 "Hg (Aug 16, 7:00 AM)
Low37 °F (Aug 28, 12:00 AM)37% (Aug 22, 7:00 PM)29.34 "Hg (Aug 27, 7:00 AM)
Average49 °F79%29.93 "Hg
* Reported Aug 13 8:00 PM — Aug 28 8:00 PM, Inuvik, Weather by CustomWeather, © 2015

Note: Actual official high and low records may vary slightly from our data, if they occured in-between our weather recording intervals... More about our weather records

Advertising

Inuvik weather history for previous 24 hours

 ConditionsComfort  
Time TempWeatherWind HumidityBarometerVisibility
8:00 PM
Fri, Aug 28
43 °FBroken clouds.7 mph57%29.80 "Hg15 mi
7:00 PM45 °FBroken clouds.10 mph53%29.80 "Hg15 mi
6:00 PM45 °FMore clouds than sun.13 mph53%29.80 "Hg15 mi
5:00 PM45 °FBroken clouds.8 mph53%29.82 "Hg15 mi
4:00 PM45 °FPartly sunny.12 mph53%29.81 "Hg15 mi
3:00 PM45 °FCloudy.12 mph57%29.81 "Hg15 mi
2:00 PM45 °FScattered showers. Broken clouds.15 mph61%29.82 "Hg15 mi
1:51 PM43 °FScattered showers. Broken clouds.7 mph71%29.82 "Hg15 mi
1:00 PM43 °FScattered showers. Scattered clouds.9 mph76%29.82 "Hg15 mi
12:51 PM41 °FScattered showers. Scattered clouds.10 mph81%29.83 "Hg15 mi
12:00 PM43 °FPartly sunny.10 mph71%29.81 "Hg15 mi
11:00 AM41 °FBroken clouds.7 mph87%29.81 "Hg15 mi
10:00 AM39 °FScattered showers. Mostly cloudy.8 mph87%29.81 "Hg15 mi
9:00 AM39 °FMostly cloudy.5 mph87%29.81 "Hg15 mi
8:00 AM37 °FPartly cloudy.5 mph87%29.80 "Hg15 mi
7:00 AM37 °FPassing clouds.5 mph87%29.81 "Hg15 mi
6:00 AM37 °FLight rain. Partly cloudy.7 mph93%29.79 "Hg10 mi
5:00 AM37 °FLight rain. Mostly cloudy.14 mph93%29.78 "Hg10 mi
4:00 AM39 °FLight rain. Mostly cloudy.12 mph87%29.76 "Hg10 mi
3:00 AM39 °FPartly cloudy.7 mph81%29.74 "Hg15 mi
2:00 AM37 °FPassing clouds.6 mph93%29.73 "Hg15 mi
1:00 AM37 °FBroken clouds.6 mph87%29.72 "Hg15 mi
12:00 AM37 °FBroken clouds.8 mph87%29.70 "Hg15 mi
11:00 PM
Thu, Aug 27
39 °FMostly cloudy.9 mph87%29.69 "Hg10 mi
10:01 PM39 °FLight rain. Mostly cloudy.12 mph87%29.67 "Hg10 mi
9:00 PM39 °FLight rain. Fog.12 mph87%29.64 "Hg8 mi
Weather by CustomWeather, © 2015

See weather overviewHow to use our weather pages